Location: Endfield
(51.6667°N, 0.0667°W)
Time: 12:44:55
(UTC+00:00)

Cosmos 1110 Rocket - Pass Details

Date: 19 May 2024
Orbit: 750 x 779 km, 74.0° (Epoch: 18 June)

Event Time Altitude Azimuth Distance (km) Brightness Sun altitude
Rises 22:14:21 0° 332° (NNW) 3,274 9.2 -14.9°
Reaches altitude 10° 22:16:46 10° 329° (NNW) 2,343 7.9 -15.0°
Maximum altitude 22:22:00 59° 251° (WSW) 904 4.4 -15.4°
Enters shadow 22:25:17 22° 180° (S) 1,631 5.2 -15.6°
